Location: Jesenik
(50.2330°N, 17.2000°E)
Time: 02:00:07
(UTC+02:00)

ISS - Pass Details

Date: 28 March 2019
Orbit: 408 x 410 km, 51.6° (Epoch: 23 April)

Event Time Altitude Azimuth Distance (km) Brightness Sun altitude
Rises 20:55:20 0° 282° (WNW) 2,337 1.0 -24.1°
Reaches altitude 10° 20:57:25 10° 284° (WNW) 1,475 -0.1 -24.3°
Enters shadow 20:59:22 32° 290° (WNW) 724 -2.1 -24.6°
